Погода в Итякове

Россия / Республика Мордовия     54°38′44″N   43°15′09″E
темп.,
°C
ветер,
м/с
пор.,
м/с
влажн.,
%
обл.,
%
осадки,
мм/ч
давл.,
гПа
погр.,
м
7 марта, вс
вс700:00−14з22920 0.0 101420
03:00−15зюз239625 0.0 101334
06:00−15юз259883 0.0 101287
09:00−10ююз4108990 0.0 1009371
12:00−5ююз61282100 0.0 10051002
15:00−5юз71592100 1.1 10011306
18:00−4юз61493100 1.5 9971176
21:00−4ююз61394100 2.4 993956
8 марта, пн
пн800:00−2зюз71286100 1.4 991995
03:00−9з5139083 1.4 994469
06:00−8зюз6149099 0.4 997771
09:00−8зюз5109198 0.4 999472
12:00−5зюз588789 0.0 999893
15:00−4юз588995 0.4 999925
18:00−7з41087100 0.8 1000505
21:00−10з389291 0.8 1003189
9 марта, вт
вт900:00−14зсз239717 0.0 100663
03:00−16з359833 0.0 100887
06:00−17зсз239993 0.0 101049
09:00−14сз249596 0.1 1011243
12:00−11зсз3488100 0.0 1013625
15:00−11зсз4686100 0.1 1014775
18:00−14сз2693100 0.1 1015152
21:00−18сз379694 0.1 1017138
10 марта, ср
ср1000:00−21сз239992 0.0 101853
03:00−24сз239975 0.1 101974
06:00−25сз259992 0.0 1021103
09:00−22сз369591 0.0 1023327
12:00−18сз358699 0.0 1024647
15:00−17сз3586100 0.1 1024750
18:00−20сз2395100 0.0 102435
21:00−23зсз239562 0.0 102623
11 марта, чт
чт1100:00−24з23950 0.0 102634
03:00−25з23921 0.0 102756
06:00−25з238838 0.0 102835
09:00−20з258537 0.0 1028194
12:00−13зюз24766 0.0 1027351
15:00−9ю35773 0.0 1026615
18:00−16ююв38850 0.0 1025198
21:00−15ю399448 0.1 1024301